WARNING - Please set your current conddition source. Defaulted to metar

Welkom op de weersite van Veghel e.o.

Voor vele een welkome verandering , het regent weer.

Temperatuur weer onder 25 graden dus;

Einde aan de hittegolf 2018.

Deze begon op 12 juli t/m 8 augustus totaal van 28 dagen.

Het warmst was het op 26 en 27 juli met 36.6 graden.


Webcam Veghel  Webcam Veghel


Onweer radar Meer informatie blitzortung!


Regen radar Meer informatie rain snow radar


U vindt ons ook hier:

Het Weer Aktueel

European Weather Network

Weather Underground

Benelux Weer Netwerk

AWEKAS


Het weer levert geen direct gevaar op.    Er zijn geen waarschuwingen afgegeven.

Weather Underground Historische gegevens

Dagelijkse Samenvatting februari 18, 2019 Eenheden:  Metrisch    Engels   Beide
« Vorige Dag
Volgende Dag »
Dagelijkse Wekelijkse Maandelijkse Jaarlijkse Aangepaste
  Huidig: Hoog: Laag: Gemiddeld:
Temperatuur: -15.2 °C -17.8 °C -18.3 °C -14.2 °C
Dauwpunt: -16.4 °C -17.8 °C -18.9 °C -17 °C
Vochtigheid: 85 % Humidity % 41 % 73 %
Wind snelheid: 7.7 km/h 0 km/h 2.6 km/h 8.4 km/h
Windvlaag: 7.7 km/h 0 km/h - -
Wind:SSW - - South
Luchtdruk: 34361.1 hPa 0 hPa 34337.4 hPa -
Neerslag: 0 mm      
Historical Graphs
 
 
Tabel voor februari 18, 2019
Tijd Temperatuur Dauwpunt Luchtdruk Wind Wind snelheid Windvlaag Vochtigheid Regenval per uur
-17.8 °C -17.8 °C 0 hPa Calm     Humidity % 0 mm
00:00 -15.8 °C -18.1 °C 34486.4 hPa SSE 5.1 km/h 5.1 km/h 75 % 0 mm
00:15 -16.1 °C -18.2 °C 34496.6 hPa SSE 7.7 km/h 7.7 km/h 76 % 0 mm
00:20 -16.2 °C -18.2 °C 34486.4 hPa SSE 7.7 km/h 7.7 km/h 77 % 0 mm
00:25 -16.3 °C -18.2 °C 34486.4 hPa SSE 5.1 km/h 5.1 km/h 78 % 0 mm
00:30 -16.3 °C -18.2 °C 34496.6 hPa SSE 5.1 km/h 10.3 km/h 78 % 0 mm
00:35 -16.4 °C -18.2 °C 34486.4 hPa SSE 7.7 km/h 7.7 km/h 79 % 0 mm
00:40 -16.4 °C -18.2 °C 34486.4 hPa SSE 7.7 km/h 7.7 km/h 80 % 0 mm
00:45 -16.5 °C -18.2 °C 34496.6 hPa SSE 5.1 km/h 7.7 km/h 80 % 0 mm
00:50 -16.6 °C -18.2 °C 34496.6 hPa SSE 5.1 km/h 7.7 km/h 81 % 0 mm
00:55 -16.6 °C -18.2 °C 34496.6 hPa SSE 5.1 km/h 5.1 km/h 82 % 0 mm
01:00 -16.6 °C -18 °C 34496.6 hPa SSE 5.1 km/h 7.7 km/h 83 % 0 mm
01:05 -16.5 °C -17.9 °C 34496.6 hPa SSE 5.1 km/h 7.7 km/h 83 % 0 mm
01:10 -16.5 °C -17.9 °C 34496.6 hPa SSE 5.1 km/h 5.1 km/h 83 % 0 mm
01:15 -16.5 °C -18 °C 34496.6 hPa SSE 5.1 km/h 5.1 km/h 82 % 0 mm
01:20 -16.5 °C -18.1 °C 34496.6 hPa SSE 5.1 km/h 5.1 km/h 82 % 0 mm
01:25 -16.6 °C -18.1 °C 34496.6 hPa SSE 5.1 km/h 7.7 km/h 82 % 0 mm
01:30 -16.6 °C -18.1 °C 34496.6 hPa SSE 5.1 km/h 5.1 km/h 82 % 0 mm
01:35 -16.6 °C -18.2 °C 34496.6 hPa SSE 5.1 km/h 5.1 km/h 82 % 0 mm
01:40 -16.7 °C -18.2 °C 34496.6 hPa SSE 5.1 km/h 5.1 km/h 82 % 0 mm
01:45 -16.8 °C -18.3 °C 34496.6 hPa SSE 5.1 km/h 5.1 km/h 82 % 0 mm
01:50 -16.8 °C -18.4 °C 34496.6 hPa SSE 5.1 km/h 7.7 km/h 82 % 0 mm
01:55 -16.9 °C -18.4 °C 34496.6 hPa SSE 5.1 km/h 7.7 km/h 83 % 0 mm
02:00 -17.1 °C -18.4 °C 34496.6 hPa SSE 5.1 km/h 5.1 km/h 84 % 0 mm
02:05 -17.1 °C -18.4 °C 34510.1 hPa SSE 5.1 km/h 5.1 km/h 84 % 0 mm
02:10 -17.2 °C -18.5 °C 34510.1 hPa SSE 7.7 km/h 7.7 km/h 84 % 0 mm
02:15 -17.2 °C -18.4 °C 34496.6 hPa SE 7.7 km/h 10.3 km/h 86 % 0 mm
02:20 -17.3 °C -18.4 °C 34496.6 hPa SE 7.7 km/h 10.3 km/h 86 % 0 mm
02:25 -17.3 °C -18.4 °C 34496.6 hPa SE 7.7 km/h 10.3 km/h 86 % 0 mm
02:30 -17.3 °C -18.4 °C 34496.6 hPa SE 7.7 km/h 7.7 km/h 87 % 0 mm
02:35 -17.4 °C -18.4 °C 34496.6 hPa SE 7.7 km/h 7.7 km/h 87 % 0 mm
02:40 -17.4 °C -18.4 °C 34496.6 hPa SE 7.7 km/h 7.7 km/h 87 % 0 mm
02:45 -17.4 °C -18.4 °C 34496.6 hPa SE 7.7 km/h 7.7 km/h 88 % 0 mm
02:50 -17.4 °C -18.4 °C 34496.6 hPa SE 7.7 km/h 7.7 km/h 88 % 0 mm
02:55 -17.5 °C -18.5 °C 34496.6 hPa SE 7.7 km/h 7.7 km/h 88 % 0 mm
03:00 -17.6 °C -18.5 °C 34496.6 hPa SE 7.7 km/h 7.7 km/h 88 % 0 mm
03:05 -17.6 °C -18.6 °C 34496.6 hPa SE 5.1 km/h 7.7 km/h 88 % 0 mm
03:10 -17.6 °C -18.6 °C 34496.6 hPa SE 5.1 km/h 5.1 km/h 88 % 0 mm
03:15 -17.7 °C -18.7 °C 34486.4 hPa SE 5.1 km/h 5.1 km/h 88 % 0 mm
03:20 -17.7 °C -18.7 °C 34486.4 hPa SE 5.1 km/h 5.1 km/h 88 % 0 mm
03:25 -17.8 °C -18.8 °C 34486.4 hPa SE 5.1 km/h 5.1 km/h 88 % 0 mm
03:30 -17.9 °C -18.8 °C 34486.4 hPa SE 5.1 km/h 5.1 km/h 89 % 0 mm
03:35 -17.9 °C -18.8 °C 34486.4 hPa SE 5.1 km/h 5.1 km/h 89 % 0 mm
03:40 -17.9 °C -18.8 °C 34486.4 hPa SE 5.1 km/h 5.1 km/h 89 % 0 mm
03:45 -17.9 °C -18.8 °C 34486.4 hPa SE 5.1 km/h 5.1 km/h 89 % 0 mm
03:50 -18 °C -18.8 °C 34486.4 hPa SE 5.1 km/h 5.1 km/h 90 % 0 mm
03:55 -18 °C -18.8 °C 34486.4 hPa SE 5.1 km/h 5.1 km/h 90 % 0 mm
04:00 -18.1 °C -18.8 °C 34486.4 hPa SE 5.1 km/h 7.7 km/h 90 % 0 mm
04:15 -18.1 °C -18.9 °C 34486.4 hPa SE 7.7 km/h 7.7 km/h 90 % 0 mm
04:20 -18.1 °C -18.8 °C 34486.4 hPa SE 7.7 km/h 7.7 km/h 91 % 0 mm
04:25 -18.1 °C -18.8 °C 34486.4 hPa SE 7.7 km/h 7.7 km/h 91 % 0 mm
04:30 -18.1 °C -18.7 °C 34486.4 hPa SE 5.1 km/h 7.7 km/h 92 % 0 mm
04:35 -18.1 °C -18.7 °C 34486.4 hPa SE 5.1 km/h 7.7 km/h 92 % 0 mm
04:40 -18.1 °C -18.7 °C 34486.4 hPa SE 5.1 km/h 7.7 km/h 92 % 0 mm
04:45 -18.1 °C -18.7 °C 34486.4 hPa SE 7.7 km/h 7.7 km/h 92 % 0 mm
04:50 -18.1 °C -18.8 °C 34486.4 hPa SE 5.1 km/h 7.7 km/h 91 % 0 mm
04:55 -18.1 °C -18.7 °C 34486.4 hPa SE 5.1 km/h 5.1 km/h 92 % 0 mm
05:00 -18 °C -18.7 °C 34486.4 hPa SE 5.1 km/h 7.7 km/h 92 % 0 mm
05:05 -18 °C -18.7 °C 34486.4 hPa SE 7.7 km/h 7.7 km/h 92 % 0 mm
05:10 -18.1 °C -18.7 °C 34486.4 hPa SE 7.7 km/h 7.7 km/h 92 % 0 mm
05:15 -18.1 °C -18.7 °C 34486.4 hPa SE 7.7 km/h 7.7 km/h 92 % 0 mm
05:20 -18.1 °C -18.7 °C 34476.3 hPa SE 7.7 km/h 7.7 km/h 92 % 0 mm
05:25 -18.2 °C -18.8 °C 34486.4 hPa SE 7.7 km/h 7.7 km/h 92 % 0 mm
05:30 -18.2 °C -18.8 °C 34486.4 hPa SE 7.7 km/h 7.7 km/h 92 % 0 mm
05:35 -18.2 °C -18.8 °C 34486.4 hPa SE 7.7 km/h 7.7 km/h 92 % 0 mm
05:40 -18.2 °C -18.8 °C 34476.3 hPa SE 7.7 km/h 7.7 km/h 92 % 0 mm
05:45 -18.2 °C -18.8 °C 34476.3 hPa SE 7.7 km/h 7.7 km/h 92 % 0 mm
05:50 -18.2 °C -18.7 °C 34486.4 hPa SE 5.1 km/h 5.1 km/h 93 % 0 mm
05:55 -18.2 °C -18.7 °C 34486.4 hPa SE 2.6 km/h 5.1 km/h 93 % 0 mm
06:00 -18.1 °C -18.7 °C 34476.3 hPa SE 5.1 km/h 7.7 km/h 93 % 0 mm
06:05 -18.1 °C -18.7 °C 34476.3 hPa SE 7.7 km/h 7.7 km/h 93 % 0 mm
06:10 -18.2 °C -18.7 °C 34476.3 hPa SE 7.7 km/h 7.7 km/h 93 % 0 mm
06:15 -18.2 °C -18.7 °C 34476.3 hPa SE 7.7 km/h 7.7 km/h 93 % 0 mm
06:20 -18.2 °C -18.7 °C 34476.3 hPa SE 7.7 km/h 10.3 km/h 93 % 0 mm
06:25 -18.2 °C -18.8 °C 34476.3 hPa SE 7.7 km/h 10.3 km/h 93 % 0 mm
06:30 -18.2 °C -18.8 °C 34476.3 hPa SE 7.7 km/h 7.7 km/h 93 % 0 mm
06:35 -18.2 °C -18.8 °C 34476.3 hPa SE 7.7 km/h 7.7 km/h 93 % 0 mm
06:40 -18.2 °C -18.8 °C 34476.3 hPa SE 7.7 km/h 7.7 km/h 93 % 0 mm
06:45 -18.2 °C -18.8 °C 34476.3 hPa SSE 7.7 km/h 7.7 km/h 93 % 0 mm
06:50 -18.2 °C -18.8 °C 34476.3 hPa SSE 5.1 km/h 5.1 km/h 93 % 0 mm
06:55 -18.2 °C -18.8 °C 34476.3 hPa SSE 5.1 km/h 5.1 km/h 93 % 0 mm
07:00 -18.2 °C -18.7 °C 34476.3 hPa SSE 5.1 km/h 5.1 km/h 94 % 0 mm
07:15 -18.1 °C -18.6 °C 34476.3 hPa SSE 2.6 km/h 5.1 km/h 94 % 0 mm
07:20 -18.1 °C -18.7 °C 34476.3 hPa SSE 5.1 km/h 5.1 km/h 93 % 0 mm
07:25 -18.1 °C -18.7 °C 34476.3 hPa SSE 5.1 km/h 5.1 km/h 93 % 0 mm
07:30 -18.2 °C -18.7 °C 34476.3 hPa SSE 2.6 km/h 5.1 km/h 93 % 0 mm
07:35 -18.2 °C -18.7 °C 34476.3 hPa SSE 5.1 km/h 5.1 km/h 93 % 0 mm
07:40 -18.2 °C -18.8 °C 34476.3 hPa SSE 5.1 km/h 5.1 km/h 93 % 0 mm
07:45 -18.2 °C -18.8 °C 34476.3 hPa SSE 5.1 km/h 7.7 km/h 93 % 0 mm
07:50 -18.3 °C -18.8 °C 34476.3 hPa SSE 7.7 km/h 7.7 km/h 93 % 0 mm
07:55 -18.3 °C -18.8 °C 34476.3 hPa SSE 7.7 km/h 7.7 km/h 94 % 0 mm
08:05 -18.2 °C -18.7 °C 34476.3 hPa SSE 5.1 km/h 5.1 km/h 94 % 0 mm
08:10 -18.1 °C -18.6 °C 34476.3 hPa SSE 5.1 km/h 5.1 km/h 94 % 0 mm
08:15 -18.1 °C -18.5 °C 34476.3 hPa SSE 5.1 km/h 5.1 km/h 94 % 0 mm
08:20 -18.1 °C -18.5 °C 34476.3 hPa SSE 5.1 km/h 5.1 km/h 94 % 0 mm
08:25 -18 °C -18.5 °C 34476.3 hPa SSE 5.1 km/h 7.7 km/h 94 % 0 mm
08:30 -18 °C -18.4 °C 34476.3 hPa SSE 7.7 km/h 10.3 km/h 94 % 0 mm
08:35 -17.9 °C -18.3 °C 34476.3 hPa SSE 10.3 km/h 10.3 km/h 95 % 0 mm
08:40 -17.7 °C -18.2 °C 34476.3 hPa SSE 10.3 km/h 10.3 km/h 95 % 0 mm
08:45 -17.6 °C -17.9 °C 34462.7 hPa SSE 7.7 km/h 7.7 km/h 95 % 0 mm
08:50 -17.4 °C -17.8 °C 34476.3 hPa South 7.7 km/h 7.7 km/h 95 % 0 mm
08:55 -17.2 °C -17.7 °C 34462.7 hPa South 7.7 km/h 7.7 km/h 94 % 0 mm
09:00 -17.1 °C -17.6 °C 34462.7 hPa South 7.7 km/h 7.7 km/h 94 % 0 mm
09:05 -16.9 °C -17.4 °C 34476.3 hPa South 7.7 km/h 7.7 km/h 94 % 0 mm
09:10 -16.7 °C -17.3 °C 34476.3 hPa SSW 7.7 km/h 7.7 km/h 93 % 0 mm
09:15 -16.4 °C -17.1 °C 34476.3 hPa South 7.7 km/h 12.9 km/h 92 % 0 mm
09:20 -16.2 °C -17 °C 34476.3 hPa SSW 7.7 km/h 7.7 km/h 90 % 0 mm
09:25 -15.9 °C -17 °C 34476.3 hPa South 5.1 km/h 7.7 km/h 87 % 0 mm
09:30 -15.7 °C -16.8 °C 34476.3 hPa South 7.7 km/h 7.7 km/h 86 % 0 mm
09:35 -15.4 °C -16.8 °C 34476.3 hPa South 7.7 km/h 7.7 km/h 84 % 0 mm
09:40 -15.2 °C -16.8 °C 34476.3 hPa South 7.7 km/h 7.7 km/h 82 % 0 mm
09:45 -15 °C -16.7 °C 34476.3 hPa South 7.7 km/h 12.9 km/h 81 % 0 mm
09:50 -14.8 °C -16.6 °C 34462.7 hPa South 10.3 km/h 10.3 km/h 79 % 0 mm
09:55 -14.6 °C -16.4 °C 34476.3 hPa South 7.7 km/h 10.3 km/h 79 % 0 mm
10:00 -14.4 °C -16.4 °C 34462.7 hPa South 7.7 km/h 7.7 km/h 77 % 0 mm
10:15 -13.8 °C -16.3 °C 34462.7 hPa South 10.3 km/h 10.3 km/h 74 % 0 mm
10:20 -13.7 °C -16.3 °C 34462.7 hPa South 7.7 km/h 10.3 km/h 72 % 0 mm
10:25 -13.6 °C -16.2 °C 34462.7 hPa SSE 7.7 km/h 10.3 km/h 72 % 0 mm
10:30 -13.4 °C -16.2 °C 34462.7 hPa SSE 7.7 km/h 10.3 km/h 70 % 0 mm
10:35 -13.3 °C -16.2 °C 34462.7 hPa South 7.7 km/h 7.7 km/h 70 % 0 mm
10:40 -13.1 °C -16 °C 34452.6 hPa South 7.7 km/h 7.7 km/h 70 % 0 mm
10:45 -13 °C -16 °C 34452.6 hPa SSE 7.7 km/h 10.3 km/h 69 % 0 mm
10:50 -12.8 °C -15.9 °C 34462.7 hPa SSE 5.1 km/h 10.3 km/h 68 % 0 mm
10:55 -12.7 °C -16.1 °C 34462.7 hPa South 7.7 km/h 15.6 km/h 66 % 0 mm
11:00 -12.6 °C -15.9 °C 34462.7 hPa South 10.3 km/h 10.3 km/h 66 % 0 mm
11:05 -12.5 °C -16.1 °C 34462.7 hPa SSW 10.3 km/h 15.6 km/h 64 % 0 mm
11:10 -12.4 °C -15.9 °C 34462.7 hPa SSE 10.3 km/h 10.3 km/h 65 % 0 mm
11:15 -12.2 °C -15.7 °C 34452.6 hPa South 7.7 km/h 10.3 km/h 65 % 0 mm
11:20 -12.1 °C -15.6 °C 34452.6 hPa SSE 7.7 km/h 7.7 km/h 65 % 0 mm
11:25 -12 °C -15.6 °C 34452.6 hPa SSE 7.7 km/h 7.7 km/h 64 % 0 mm
11:30 -11.8 °C -15.6 °C 34452.6 hPa SSE 7.7 km/h 7.7 km/h 63 % 0 mm
11:35 -11.7 °C -15.6 °C 34452.6 hPa SSE 10.3 km/h 10.3 km/h 62 % 0 mm
11:40 -11.6 °C -15.6 °C 34452.6 hPa SSW 7.7 km/h 12.9 km/h 61 % 0 mm
11:45 -11.4 °C -15.6 °C 34452.6 hPa SSE 10.3 km/h 12.9 km/h 60 % 0 mm
11:50 -11.3 °C -15.6 °C 34452.6 hPa SSE 10.3 km/h 10.3 km/h 59 % 0 mm
11:55 -11.2 °C -15.4 °C 34442.4 hPa SSE 10.3 km/h 10.3 km/h 60 % 0 mm
12:00 -11.1 °C -15.4 °C 34442.4 hPa SSE 10.3 km/h 12.9 km/h 59 % 0 mm
12:05 -11 °C -15.4 °C 34442.4 hPa SSE 10.3 km/h 12.9 km/h 58 % 0 mm
12:10 -10.9 °C -15.5 °C 34442.4 hPa SSE 12.9 km/h 20.8 km/h 57 % 0 mm
12:15 -10.8 °C -15.4 °C 34442.4 hPa South 12.9 km/h 20.8 km/h 57 % 0 mm
12:20 -10.7 °C -15.4 °C 34428.8 hPa South 12.9 km/h 12.9 km/h 57 % 0 mm
12:25 -10.6 °C -15.1 °C 34428.8 hPa South 12.9 km/h 12.9 km/h 58 % 0 mm
12:30 -10.5 °C -15.1 °C 34428.8 hPa SSE 10.3 km/h 10.3 km/h 57 % 0 mm
12:35 -10.4 °C -15.2 °C 34428.8 hPa South 10.3 km/h 10.3 km/h 56 % 0 mm
12:40 -10.2 °C -14.9 °C 34428.8 hPa South 10.3 km/h 10.3 km/h 57 % 0 mm
12:45 -10.1 °C -15.2 °C 34418.7 hPa SSW 10.3 km/h 20.8 km/h 54 % 0 mm
12:50 -10 °C -15.2 °C 34418.7 hPa SSE 15.6 km/h 15.6 km/h 53 % 0 mm
12:55 -9.9 °C -15.2 °C 34418.7 hPa South 15.6 km/h 18.2 km/h 53 % 0 mm
13:00 -9.8 °C -15.2 °C 34418.7 hPa SSE 18.2 km/h 18.2 km/h 52 % 0 mm
13:15 -9.6 °C -15.4 °C 34418.7 hPa SW 18.2 km/h 18.2 km/h 49 % 0 mm
13:20 -9.6 °C -15.3 °C 34418.7 hPa South 15.6 km/h 18.2 km/h 50 % 0 mm
13:25 -9.5 °C -15.1 °C 34405.1 hPa SSW 12.9 km/h 15.6 km/h 51 % 0 mm
13:30 -9.4 °C -15.5 °C 34405.1 hPa South 12.9 km/h 15.6 km/h 48 % 0 mm
13:35 -9.4 °C -15.3 °C 34405.1 hPa SSE 15.6 km/h 15.6 km/h 49 % 0 mm
13:40 -9.3 °C -15.4 °C 34395 hPa SSW 12.9 km/h 15.6 km/h 48 % 0 mm
13:45 -9.2 °C -15.4 °C 34395 hPa SE 12.9 km/h 12.9 km/h 47 % 0 mm
13:50 -9.1 °C -15.2 °C 34395 hPa South 12.9 km/h 12.9 km/h 48 % 0 mm
13:55 -9 °C -15.2 °C 34395 hPa SSW 12.9 km/h 12.9 km/h 47 % 0 mm
14:00 -9 °C -15.2 °C 34395 hPa South 12.9 km/h 12.9 km/h 47 % 0 mm
14:05 -8.8 °C -15.3 °C 34384.8 hPa SSE 15.6 km/h 15.6 km/h 46 % 0 mm
14:10 -8.8 °C -15.2 °C 34384.8 hPa SSW 12.9 km/h 18.2 km/h 46 % 0 mm
14:15 -8.7 °C -15.4 °C 34384.8 hPa SSW 12.9 km/h 18.2 km/h 45 % 0 mm
14:20 -8.7 °C -15.5 °C 34371.3 hPa SSW 12.9 km/h 12.9 km/h 44 % 0 mm
14:25 -8.7 °C -15.4 °C 34371.3 hPa South 15.6 km/h 15.6 km/h 44 % 0 mm
14:30 -8.6 °C -15.3 °C 34371.3 hPa SSW 12.9 km/h 18.2 km/h 45 % 0 mm
14:35 -8.5 °C -15.6 °C 34371.3 hPa SW 12.9 km/h 18.2 km/h 43 % 0 mm
14:40 -8.6 °C -15.6 °C 34361.1 hPa SSW 15.6 km/h 18.2 km/h 43 % 0 mm
14:45 -8.6 °C -15.8 °C 34361.1 hPa SW 15.6 km/h 18.2 km/h 42 % 0 mm
14:50 -8.7 °C -15.7 °C 34361.1 hPa SSE 15.6 km/h 15.6 km/h 43 % 0 mm
14:55 -8.7 °C -15.7 °C 34361.1 hPa SSW 15.6 km/h 15.6 km/h 43 % 0 mm
15:00 -8.7 °C -15.7 °C 34361.1 hPa South 15.6 km/h 15.6 km/h 43 % 0 mm
15:05 -8.7 °C -15.8 °C 34361.1 hPa SSW 12.9 km/h 15.6 km/h 42 % 0 mm
15:10 -8.6 °C -15.8 °C 34361.1 hPa SSW 12.9 km/h 15.6 km/h 42 % 0 mm
15:15 -8.6 °C -16 °C 34347.6 hPa SSE 12.9 km/h 15.6 km/h 41 % 0 mm
15:20 -8.6 °C -15.9 °C 34347.6 hPa SSW 10.3 km/h 12.9 km/h 41 % 0 mm
15:25 -8.5 °C -15.7 °C 34347.6 hPa SW 10.3 km/h 12.9 km/h 42 % 0 mm
15:30 -8.6 °C -15.8 °C 34347.6 hPa SSW 10.3 km/h 15.6 km/h 42 % 0 mm
15:35 -8.7 °C -16 °C 34361.1 hPa SW 12.9 km/h 15.6 km/h 41 % 0 mm
15:40 -8.7 °C -15.9 °C 34361.1 hPa SW 12.9 km/h 12.9 km/h 42 % 0 mm
15:45 -8.8 °C -16.2 °C 34361.1 hPa WSW 12.9 km/h 15.6 km/h 41 % 0 mm
15:50 -8.8 °C -16 °C 34361.1 hPa SSW 15.6 km/h 18.2 km/h 42 % 0 mm
15:55 -8.9 °C -16.1 °C 34361.1 hPa SW 15.6 km/h 18.2 km/h 42 % 0 mm
16:00 -9 °C -16 °C 34347.6 hPa South 18.2 km/h 18.2 km/h 43 % 0 mm
16:15 -9.1 °C -16.1 °C 34347.6 hPa SSW 18.2 km/h 18.2 km/h 43 % 0 mm
16:20 -9.2 °C -15.8 °C 34347.6 hPa WSW 18.2 km/h 18.2 km/h 45 % 0 mm
16:25 -9.3 °C -15.7 °C 34347.6 hPa West 12.9 km/h 18.2 km/h 46 % 0 mm
16:30 -9.4 °C -15.8 °C 34347.6 hPa WSW 12.9 km/h 18.2 km/h 46 % 0 mm
16:35 -9.4 °C -15.7 °C 34347.6 hPa West 10.3 km/h 10.3 km/h 47 % 0 mm
16:40 -9.5 °C -15.7 °C 34347.6 hPa WSW 7.7 km/h 10.3 km/h 47 % 0 mm
16:45 -9.5 °C -15.6 °C 34347.6 hPa West 7.7 km/h 10.3 km/h 48 % 0 mm
16:50 -9.6 °C -15.8 °C 34347.6 hPa West 10.3 km/h 10.3 km/h 47 % 0 mm
16:55 -9.6 °C -15.6 °C 34347.6 hPa West 10.3 km/h 12.9 km/h 48 % 0 mm
17:00 -9.6 °C -15.7 °C 34347.6 hPa West 12.9 km/h 12.9 km/h 48 % 0 mm
17:05 -9.6 °C -15.7 °C 34347.6 hPa West 12.9 km/h 12.9 km/h 48 % 0 mm
17:10 -9.7 °C -15.7 °C 34347.6 hPa West 10.3 km/h 10.3 km/h 48 % 0 mm
17:15 -9.7 °C -15.6 °C 34337.4 hPa WSW 10.3 km/h 10.3 km/h 49 % 0 mm
17:20 -9.8 °C -15.7 °C 34337.4 hPa WSW 7.7 km/h 7.7 km/h 49 % 0 mm
17:25 -9.9 °C -15.7 °C 34347.6 hPa WSW 7.7 km/h 7.7 km/h 50 % 0 mm
17:30 -10.1 °C -15.6 °C 34347.6 hPa WSW 7.7 km/h 7.7 km/h 51 % 0 mm
17:35 -10.2 °C -15.6 °C 34347.6 hPa WSW 7.7 km/h 7.7 km/h 52 % 0 mm
17:40 -10.3 °C -15.7 °C 34347.6 hPa SW 10.3 km/h 10.3 km/h 52 % 0 mm
17:45 -10.4 °C -15.7 °C 34347.6 hPa SW 10.3 km/h 10.3 km/h 53 % 0 mm
17:50 -10.6 °C -15.8 °C 34347.6 hPa SW 7.7 km/h 10.3 km/h 53 % 0 mm
17:55 -10.7 °C -15.7 °C 34347.6 hPa SW 7.7 km/h 10.3 km/h 54 % 0 mm
18:00 -10.9 °C -15.7 °C 34347.6 hPa SW 7.7 km/h 7.7 km/h 55 % 0 mm
18:05 -11.2 °C -15.7 °C 34347.6 hPa SW 5.1 km/h 7.7 km/h 57 % 0 mm
18:10 -11.4 °C -15.7 °C 34347.6 hPa SW 5.1 km/h 5.1 km/h 59 % 0 mm
18:15 -11.6 °C -15.9 °C 34361.1 hPa SW 5.1 km/h 5.1 km/h 59 % 0 mm
18:20 -11.8 °C -15.9 °C 34347.6 hPa SW 5.1 km/h 5.1 km/h 61 % 0 mm
18:25 -12.1 °C -15.8 °C 34347.6 hPa SW 5.1 km/h 10.3 km/h 63 % 0 mm
18:30 -12.3 °C -15.9 °C 34361.1 hPa SW 7.7 km/h 7.7 km/h 64 % 0 mm
18:35 -12.6 °C -15.9 °C 34347.6 hPa SW 7.7 km/h 7.7 km/h 66 % 0 mm
18:40 -12.8 °C -16 °C 34347.6 hPa SW 5.1 km/h 5.1 km/h 67 % 0 mm
18:45 -13 °C -16.1 °C 34347.6 hPa SW 2.6 km/h 5.1 km/h 68 % 0 mm
18:50 -13.2 °C -16.3 °C 34347.6 hPa SW 2.6 km/h 5.1 km/h 68 % 0 mm
18:55 -13.4 °C -16.3 °C 34347.6 hPa SW 5.1 km/h 5.1 km/h 70 % 0 mm
19:00 -13.6 °C -16.2 °C 34347.6 hPa SW 5.1 km/h 5.1 km/h 72 % 0 mm
19:15 -14.1 °C -16.2 °C 34347.6 hPa SW 5.1 km/h 5.1 km/h 76 % 0 mm
19:20 -14.1 °C -16.2 °C 34347.6 hPa SW 5.1 km/h 5.1 km/h 77 % 0 mm
19:25 -14.2 °C -16.3 °C 34347.6 hPa SW 5.1 km/h 5.1 km/h 77 % 0 mm
19:30 -14.3 °C -16.3 °C 34347.6 hPa SW 5.1 km/h 5.1 km/h 78 % 0 mm
19:35 -14.4 °C -16.3 °C 34347.6 hPa SW 5.1 km/h 5.1 km/h 79 % 0 mm
19:40 -14.5 °C -16.3 °C 34347.6 hPa SW 5.1 km/h 5.1 km/h 79 % 0 mm
19:45 -14.6 °C -16.3 °C 34347.6 hPa SW 7.7 km/h 7.7 km/h 80 % 0 mm
19:50 -14.6 °C -16.2 °C 34347.6 hPa SW 5.1 km/h 7.7 km/h 81 % 0 mm
19:55 -14.6 °C -16.2 °C 34347.6 hPa SW 5.1 km/h 5.1 km/h 81 % 0 mm
20:00 -14.6 °C -16.3 °C 34347.6 hPa SW 5.1 km/h 5.1 km/h 81 % 0 mm
20:05 -14.7 °C -16.3 °C 34347.6 hPa SW 5.1 km/h 5.1 km/h 81 % 0 mm
20:10 -14.8 °C -16.4 °C 34347.6 hPa SW 5.1 km/h 5.1 km/h 81 % 0 mm
20:15 -14.8 °C -16.5 °C 34347.6 hPa SW 5.1 km/h 7.7 km/h 81 % 0 mm
20:20 -14.9 °C -16.5 °C 34347.6 hPa SW 7.7 km/h 10.3 km/h 82 % 0 mm
20:25 -14.9 °C -16.4 °C 34347.6 hPa SW 7.7 km/h 10.3 km/h 83 % 0 mm
20:30 -14.9 °C -16.3 °C 34347.6 hPa SW 10.3 km/h 10.3 km/h 84 % 0 mm
20:35 -15 °C -16.4 °C 34347.6 hPa SSW 10.3 km/h 10.3 km/h 84 % 0 mm
20:40 -15.1 °C -16.4 °C 34347.6 hPa SSW 10.3 km/h 10.3 km/h 84 % 0 mm
20:45 -15.1 °C -16.4 °C 34347.6 hPa SSW 10.3 km/h 10.3 km/h 84 % 0 mm
20:50 -15.1 °C -16.5 °C 34361.1 hPa SSW 7.7 km/h 10.3 km/h 84 % 0 mm
20:55 -15.2 °C -16.4 °C 34347.6 hPa SSW 10.3 km/h 10.3 km/h 85 % 0 mm
21:00 -15.2 °C -16.4 °C 34361.1 hPa SSW 7.7 km/h 7.7 km/h 85 % 0 mm
Veghelsweer
Gegevens verzameld door Weather Underground - 2.75 mb

Script ontwikkeld door  Jim McMurry - jmcmurry@mwt.net Aangepast voor de template door  Wim van der Kuil - Leuven-Template.eu

Apparatuur in gebruik:

Weerstation
Davis VP2

Weerprogramma
WeatherLink

Weercomputer
Sponsor

Webleverancier
My provider

Davis VP2

WeatherLink

Sponsor

My provider